User: anonymous   Login
Location: Holcomb Observatory
(44.4922°N, 73.1654°W)
Time: 06:50:28
(UTC-05:00)
Language:

Cosmos 1727 Rocket - Orbit

View from above orbital plane
View from above orbital plane
View from above satellite
View from above satellite

Ground track
Ground track

The orbit data is extracted from the following two-line orbital elements,

1 16511U 86008B   16345.68094032 -.00000035  00000-0 -52081-4 0  9997
2 16511  82.9432 359.7183 0025571  89.5526  48.6670 13.75812027550350
Epoch (UTC): 10 December 2016 16:20:33
Eccentricity: 0.0025571
inclination: 82.9432°
perigee height: 960 km
apogee height: 997 km
right ascension of ascending node: 359.7183°
argument of perigee: 89.5526°
revolutions per day: 13.75812027
mean anomaly at epoch: 48.6670°
orbit number at epoch: 55035

The dashed part of the orbit path shows where the satellite is in the earth's shadow,  

DLR